Regional Weather Roundup
Issued by NWS Upton, NY

Current Version | Previous Version | Text Only | Print | Product List | Glossary On
Versions: 1 2 3 4 5 6 7 8 9 10 11 12 13 14 15 16 17 18 19 20 21 22 23 24 25 26 27
000
ASUS41 KOKX 050704
RWROKX

REGIONAL WEATHER ROUNDUP
NATIONAL WEATHER SERVICE NEW YORK NY
300 AM EDT THU MAY 05 2016

NOTE: "FAIR" INDICATES FEW OR NO CLOUDS BELOW 12,000 FEET WITH NO
SIGNIFICANT WEATHER AND/OR OBSTRUCTIONS TO VISIBILITY.

NYZ071-072-176-178-NJZ106-104-050800-
NEW YORK CITY METRO AREA


CITY           SKY/WX    TMP DP  RH WIND       PRES   REMARKS
CENTRAL PARK   CLOUDY    48  42  80 VRB6      29.75S
LAGUARDIA APRT CLOUDY    49  45  86 N9        29.73R
KENNEDY INTL   CLOUDY    48  42  80 N13       29.73R
NEWARK/LIBERTY CLOUDY    49  43  80 NE13      29.72F
BRNX BOT. GARD   N/A     46  41  81 CALM      29.74S
TETERBORO      CLOUDY    48  42  80 N6        29.73S
$$

NYZ177-179-078>081-050800-
LONG ISLAND NEW YORK

CITY           SKY/WX    TMP DP  RH WIND       PRES   REMARKS
FARMINGDALE    CLOUDY    47  42  83 NE12      29.71F
ISLIP          CLOUDY    45  42  89 N16       29.69F
SHIRLEY        CLOUDY    46  42  86 N12G20    29.69F
RIVERHEAD        N/A     45  43  93 NE5       29.70F
WESTHAMPTON    CLOUDY    41  41 100 N14       29.71F
EAST HAMPTON   CLOUDY    45  42  92 N8        29.69F
MONTAUK POINT    N/A     46  43  89 N14       29.70F
$$

NYZ052-065-067-050800-
HUDSON VALLEY

CITY           SKY/WX    TMP DP  RH WIND       PRES   REMARKS
WHITE PLAINS   MOCLDY    46  41  82 VRB5      29.72S
NEWBURGH       NOT AVBL
MONTGOMERY     CLOUDY    47  44  90 N6        29.74S
POUGHKEEPSIE   CLOUDY    49  44  83 N5        29.74F
ALBANY         CLOUDY    48  44  86 N6        29.77F
$$

NJZ001-105-106-008-010-013-015-019>022-104-050800-
NEW JERSEY

CITY           SKY/WX    TMP DP  RH WIND       PRES   REMARKS
NEWARK/LIBERTY CLOUDY    49  43  80 NE13      29.72F
TETERBORO      CLOUDY    48  42  80 N6        29.73S
CALDWELL       CLOUDY    47  29  49 CALM      29.74S HAZE
MORRISTOWN     CLOUDY    46  43  87 N5        29.74S
SOMERVILLE     CLOUDY    49  43  80 NE6       29.71F
SUSSEX         CLOUDY    46  42  86 NE6       29.74S
ANDOVER          N/A     45  44  97 N3        29.74R
TRENTON        CLOUDY    48  44  86 NE5       29.71F
MILLVILLE      CLOUDY    48  44  86 NE15      29.68F
ATLANTIC CITY  CLOUDY    47  46  97 NE10      29.69F FOG
WRIGHTSTOWN    CLOUDY    47  46  98 N7        29.68F FOG
TOMS RIVER     CLOUDY    46  43  87 NE7       29.70F
BELMAR         LGT RAIN  46  45  96 N7        29.70F FOG
$$

PAZ047>061-062-071-050800-
EASTERN PENNSYLVANIA

CITY           SKY/WX    TMP DP  RH WIND       PRES   REMARKS
PHILADELPHIA   CLOUDY    50  44  80 E9        29.71F
ALLENTOWN      CLOUDY    48  44  86 NE8       29.73R
SCRANTON       CLOUDY    47  43  86 CALM      29.72S
$$

CTZ002-004>006-009-010-012-RIZ004-006-007-MAZ004-011-015-050800-
SOUTHERN NEW ENGLAND
 IN CT

CITY           SKY/WX    TMP DP  RH WIND       PRES   REMARKS
BRADLEY INTL   CLOUDY    45  40  82 N9        29.75F
HARTFORD       CLOUDY    47  40  76 N10       29.75F
DANBURY        CLOUDY    45  40  82 NE10      29.75S
WTRBRY/OXFORD    N/A     43  37  81 NE14G21   29.73F
BRIDGEPORT     CLOUDY    47  41  80 NE10      29.72F
MERIDEN        CLOUDY    46  39  76 N9        29.74F
NEW HAVEN      CLOUDY    45  41  86 N10       29.72F
CHESTER        CLOUDY    45  41  87 N9G16     29.72F
GROTON         CLOUDY    45  45 100 N10       29.70F
WILLIMANTIC    CLOUDY    45  40  82 N9        29.74F

 IN RI

CITY           SKY/WX    TMP DP  RH WIND       PRES   REMARKS
PROVIDENCE     CLOUDY    45  42  89 N14       29.72F
BLOCK ISLAND   CLOUDY    45  43  93 NE17G25   29.69F
WESTERLY       CLOUDY    46  42  86 N10G17    29.71F

 IN MA

CITY           SKY/WX    TMP DP  RH WIND       PRES   REMARKS
BOSTON         NOT AVBL
WORCESTER      LGT RAIN  39  38  96 NE12G18   29.75S VSB 3/4 WCI  32
WESTFIELD      CLOUDY    44  40  85 N10       29.77F
PROVINCETOWN   CLOUDY    44  43  96 NE18G24   29.71F
NANTUCKET      CLOUDY   N/A N/A N/A N20G26    29.64F HAZE
$$

ANZ330-335-338-340-345-350-353-355-050800-
COASTAL MARINE OBSERVATIONS


STATION/POSITION TIME  SKY/WX   TEMP    WIND        PRES    VSBY  WAVE
                                AIR SEA DIR/SP/G                  HT/PER
                 (UTC)          (F)     (DEG/KT/KT) (MB)    (MI)  (FT/S)
NY HARB ENTRANCE 0550            48 50   30/ 17/ 21 1005.5          6/ 7
20S FIRE ISLAND  0550            47 48   40/ 17/ 21 1005.4          7/ 7
GREAT SOUTH BAY  0630            47 54   20/ 16/ 19   N/A
23 SSW MONTAUK P 0650            45 46   30/ 21/ 25 1004.0          7/ 6
15 E BARNEGAT LI 0622               50                N/A           7/ 7
HUDSON CANYON    0550            47 48              1003.4          7/ 7
KINGS POINT      0600            48 53              1006.1
EXECUTION ROCKS  NOT AVBL
CENTRAL LI SOUND 0600            47      20/ 16/ 17   N/A           2/ 4
EASTERN LI SOUND 0600            46 47   10/ 12/ 16   N/A
ROBBINS REEF     0600            49      30/ 12/ 15 1005.6
$$


>>>>>>>>>>>>>>>>>>>>>>>>>>>> KEY <<<<<<<<<<<<<<<<<<<<<<<<<<<
>                                                          <
>     SKY/WX - SKY CONDITION/PRESENT WEATHER               <
>     TMP    - TEMPERATURE IN FAHRENHEIT                   <
>     DP     - DEWPOINT IN FAHRENHEIT                      <
>     RH     - RELATIVE HUMIDITY IN PERCENT                <
>     WIND   - DIRECTION AND SPEED IN MPH                  <
>     PRES   - MEAN SEA LEVEL PRESSURE IN INCHES OF HG     <
>     WCI    - WIND CHILL INDEX                            <
>     VSB    - VISIBILITY IN MILES                         <
>     HX     - HEAT INDEX                                  <
>     TC     - TEMPERATURE IN CELSIUS                      <
>     VRB    - VARIABLE WIND DIRECTION                     <
>                                                          <
>>>>>>>>>>>>>>>>>>>>>>>>>>>> KEY <<<<<<<<<<<<<<<<<<<<<<<<<<<






USA.gov is the U.S. government's official web portal to all federal, state and local government web resources and services.